Regional Weather Roundup
Issued by NWS Charleston, SC

Current Version | Previous Version | Text Only | Print | Product List | Glossary Off
Versions: 1 2 3 4 5 6 7 8 9 10 11 12 13 14 15 16 17 18 19 20 21 22 23 24 25 26 27 28 29 30 31 32 33 34 35 36 37 38 39 40 41 42 43 44 45 46 47 48 49 50

000
ASUS42 KCHS 231827
RWRCHS

Regional Weather Roundup
National Weather Service Charleston SC
200 PM EDT WED MAY 23 2018

NOTE: "fair" indicates few or no clouds below 12,000 feet with no
significant weather and/or obstructions to visibility.

Not all stations are quality controlled. Use data with caution,
especially dewpoint observations.

SCZ027-030-031-034>040-042>050-231900-
...Southeast South Carolina...

CITY           SKY/WX    TMP DP  RH WIND       PRES   REMARKS
N Charleston   FAIR      87  68  52 SW13      30.08F HX  90
6HR MIN TEMP:  76; 6HR MAX TEMP:  88; 6HR PCP: TRACE;

Waterfront Prk   N/A     80  73  79 S10       29.94F
Mount Pleasant FAIR      84  72  65 S14G20    30.09F
Johns Island   FAIR      84  70  61 S16       30.09F
Pinopolis        N/A     79  73  83 VRB3      30.03F
Moncks Corner  MOCLDY    81  68  65 N7        30.08F
Summerville    FAIR      86  68  54 SW3       30.08F
Beaufort MCAS  PTSUNNY   85  72  65 SE9       30.08F HX  91
6HR MIN TEMP:  77; 6HR MAX TEMP:  88;

Beaufort Arpt  FAIR      84  72  65 SE8       30.08F
Hilton Head Is MOSUNNY   82  72  69 S10       30.11F
Walterboro     FAIR      86  70  58 W6        30.08F HX  90
Allendale      LGT RAIN  77  73  88 CALM      30.08F

...Southern Midlands and Pee Dee...

CITY           SKY/WX    TMP DP  RH WIND       PRES   REMARKS
Georgetown     MOCLDY    79  77  94 SW14      30.10F
Kingstree      LGT RAIN  72  70  94 CALM      30.09F
Orangeburg     FAIR      75  69  81 CALM      30.10F
6HR MIN TEMP:  71; 6HR MAX TEMP:  79; 6HR PCP:  0.26;

Barnwell       FAIR      81  72  74 CALM      30.08F
Aiken          CLOUDY    81  68  65 SW8       30.12F
Manning        FAIR      70  66  88 CALM      30.10F
Columbia       PTSUNNY   84  72  67 S10       30.06F
6HR MIN TEMP:  72; 6HR MAX TEMP:  85; 6HR PCP: TRACE;

Sumter         PTSUNNY   73  70  88 S6        30.06F
6HR MIN TEMP:  71; 6HR MAX TEMP:  82; 6HR PCP:  0.14;

Florence       FAIR      87  70  56 W8        30.07F HX  92
6HR MIN TEMP:  74; 6HR MAX TEMP:  87;

Myrtle Beach   PTSUNNY   76  71  85 S9        30.10F
N Myrtle Beach FAIR      81  71  71 SW16      30.08S
6HR MIN TEMP:  75; 6HR MAX TEMP:  83; 6HR PCP:  0.03;


$$

GAZ063-065-086>088-099>101-113>116-118-119-134>141-150-231900-
...Southeast Georgia...

CITY           SKY/WX    TMP DP  RH WIND       PRES   REMARKS
Savannah Arpt  PTSUNNY   88  69  53 S9        30.08F HX  92
6HR MIN TEMP:  73; 6HR MAX TEMP:  89;

Hunter AAF     PTSUNNY   85  69  58 SE10      30.06F
6HR MIN TEMP:  75; 6HR MAX TEMP:  86;

Fort Stewart   PTSUNNY   86  68  55 SW7       30.06F
6HR MIN TEMP:  71; 6HR MAX TEMP:  86;

Statesboro     DRIZZLE   82  71  69 CALM      30.08F
Sylvania       DRIZZLE   82  72  72 W8        30.09S
Claxton        MOCLDY    86  71  62 NE3       30.07F HX  91

...CSRA, Central and far Southeast Georgia...

CITY           SKY/WX    TMP DP  RH WIND       PRES   REMARKS
Thomson        LGT RAIN  71  70  96 CALM      30.14F
Augusta-Bush   LGT RAIN  81  72  74 CALM      30.07F
6HR MIN TEMP:  71; 6HR MAX TEMP:  83; 6HR PCP: TRACE;

Augusta-Daniel LGT RAIN  78  71  79 SE3       30.08F
Swainsboro     FAIR      84  70  61 S7        30.08F
Vidalia        PTSUNNY   82  70  65 SW7       30.08S
Eastman        MOCLDY    75  66  73 E5        30.11R
Hazlehurst       N/A     85  68  56 CALM      30.06F
Alma           PTSUNNY   79  71  76 SW6       30.09F
6HR MIN TEMP:  73; 6HR MAX TEMP:  85; 6HR PCP:  0.01;

Waycross       CLOUDY    78  75  90 W7        30.08F
Jesup          MOCLDY    88  66  48 CALM      30.09F HX  90
Baxley         PTSUNNY   81  77  89 CALM      30.07F
Brunswick      LGT RAIN  82  70  65 SE10      30.09F
Saint Simons   FAIR      83  73  72 SE12      30.09F
6HR MIN TEMP:  76; 6HR MAX TEMP:  83;


$$

SCZ027-028-034-036>038-045-046-048>050-GAZ119-141-231900-
...Lake and Supplemental Coastal Observations...

STATION/POSITION TIME  TEMP    WIND        PRES    WAVE   SWELL
                       AIR SEA DIR/SP/G            HT/PER HT/PER/DIR
                 (UTC) (F)     (DEG/KT/KT) (MB)    (FT/S) (FT/S/D)
Winyah Bay       1745   80     200/  6     1019.0F
Lake Murray      NOT AVBL
ACE Basin NERRS  1730   84     160/  2     1019.0F
Fort Pulaski     1800   81 78  180/  6/ 11 1019.2
Sapelo Island    1800   85     160/ 12     1019.0

$$

ANZ835-935-AMZ111-154-330-350-352-354-370-450-454-472-231900-
...C-MAN and Buoy Observations...

STATION/POSITION TIME  TEMP    WIND        PRES    WAVE   SWELL
                       AIR SEA DIR/SP/G            HT/PER HT/PER/DIR
                 (UTC) (F)     (DEG/KT/KT) (MB)    (FT/S) (FT/S/D)
Buoy 41004       1800      75  220/ 10/ 12 1019.7
Buoy 41008       1750   76 77  180/ 12/ 14 1019.3F   3/ 8   2/100/ 8
Folly Beach CMAN 1800   78     190/ 17/ 18 1019.9F
Capers Nearshore 1808   77 77  220/ 16/ 19 1019.9F
Fripp Nearshore  1808   77 79  200/ 10/ 16 1018.9F


STATION/POSITION TIME  TEMP    WIND        PRES    WAVE   SWELL
                       AIR SEA DIR/SP/G            HT/PER HT/PER/DIR
                 (UTC) (F)     (DEG/KT/KT) (MB)    (FT/S) (FT/S/D)
5E St. Marys GA  1800      77                N/A     2/ 8
Frying Pan Buoy  1810   76 76  210/ 14/ 17 1019.3
Buoy 41025       1810   76 74  230/ 16/ 19 1018.0
Cape Lookout NC  1800          220/ 16/ 21 1018.2F
Buoy 41002       1810      78  210/  8/ 12 1020.8
Buoy 41010       1810   78 79  130/  6/  8 1020.3
St Augustine FL  1800   77 79  120/ 10/ 11 1019.7F


$$




USA.gov is the U.S. government's official web portal to all federal, state and local government web resources and services.